Terminal Aerodrome Forecast
Issued by NWS

Current Version | Previous Version | Graphics & Text | Print | Product List | Glossary On
Versions: 1 2 3 4 5 6 7 8 9 10 11 12 13 14 15 16 17
235
FTUS41 KPBZ 220520
TAFHLG
TAF
KHLG 220520Z 2206/2306 35012G25KT P6SM BKN025
     FM221500 35012G25KT P6SM SKC
     FM230000 VRB05KT P6SM SKC=

USA.gov is the U.S. government's official web portal to all federal, state and local government web resources and services.